Regional Weather Roundup
Issued by NWS

Home | Current Version | Previous Version | Text Only | Print | Product List | Glossary Off
Versions: 1 2 3 4 5 6 7 8 9 10 11 12 13 14 15 16 17 18 19 20 21 22 23 24 25 26 27 28 29 30 31 32 33 34 35 36 37 38 39 40 41 42 43 44 45 46 47 48 49 50

000
ASUS44 KOUN 021000
RWROK

WEATHER ROUNDUP FOR OKLAHOMA
NATIONAL WEATHER SERVICE NORMAN OK
500 AM CDT SUN AUG 02 2015

NOTE: "FAIR" INDICATES FEW OR NO CLOUDS BELOW 12,000 FEET WITH NO
      SIGNIFICANT WEATHER AND/OR OBSTRUCTIONS TO VISIBILITY.

OKZ001>007-009>012-014-015-017-021100-
NORTHWEST OKLAHOMA AND THE PANHANDLE

CITY           SKY/WX    TMP DP  RH WIND       PRES   REMARKS
GAGE           CLOUDY    71  68  90 SW3       29.96F
GUYMON         CLOUDY    65  60  84 S10       29.98F
$$

OKZ016-021>023-033>039-044-045-021100-
SOUTHWEST OKLAHOMA

CITY           SKY/WX    TMP DP  RH WIND       PRES   REMARKS
LAWTON/REGL    MOCLDY    75  70  84 CALM      29.95S
LAWTON/FT SILL CLOUDY    74  71  89 CALM      29.94S
FREDERICK      HVY RAIN  74  70  87 SE9       29.95R FOG
CLINTON        CLOUDY    73  69  87 S7        29.99F
HOBART         CLOUDY    74  69  85 S5        29.98R
ALTUS AFB      CLOUDY    75  69  82 W7        29.97S
$$

OKZ018>020-024>031-021100-
CENTRAL OKLAHOMA

CITY           SKY/WX    TMP DP  RH WIND       PRES   REMARKS
OKLAHOMA CITY  MOCLDY    73  70  90 S3        29.95F
OKC/WILEY POST MOCLDY    75  67  76 S3        29.95F
OKC/TINKER AFB MOCLDY    73  68  83 SE7       29.94F
STILLWATER     CLEAR     71  66  84 SE3       29.95F
GUTHRIE        CLOUDY    74  67  78 SE5       29.95F
$$

OKZ008-013-054>072-021100-
NORTHEAST OKLAHOMA

CITY           SKY/WX    TMP DP  RH WIND       PRES   REMARKS
TULSA          MOCLDY    77  67  71 S5        29.94F
TULSA/JONES    MOCLDY    71  68  90 CALM      29.95S
PONCA CITY     CLEAR     73  67  81 SE6       29.95S
BARTLESVILLE   CLEAR     64  64 100 CALM      29.96F
MUSKOGEE       CLEAR     70  69  97 S6        29.96F
$$

OKZ032-040>043-046>053-073>077-021100-
SOUTH CENTRAL/SOUTHEAST OKLAHOMA

CITY           SKY/WX    TMP DP  RH WIND       PRES   REMARKS
MCALESTER      CLOUDY    72  66  81 CALM      29.97S
$$




USA.gov is the U.S. government's official web portal to all federal, state and local government web resources and services.